Wind_Speed
28 30 29 28 30 31 27 27 28 29 29 28 26 24 22 22 22 21 18 16 15 16 14 14 13 13 13 11 12 12 11 10 4 2 5 10 17 15 12 7 9 12 15
21 25 27 25 25 27 27 28 30 30 26 28 26 24 23 24 22 19 17 16 17 18 16 16 14 13 12 11 12 13 12 13 8 9 8 9 12 16 14 11 10 12 14
24 26 26 26 28 28 28 30 31 30 30 28 27 24 25 25 22 17 18 14 17 17 17 15 15 14 12 11 10 10 11 12 16 15 10 14 16 18 16 11 11 12 10
28 28 26 27 28 30 31 32 32 32 31 29 27 27 26 23 20 18 15 14 15 18 16 14 14 13 12 11 11 12 11 16 20 18 15 16 13 15 17 18 15 14 15
28 25 24 26 26 30 33 33 34 33 32 30 29 25 22 22 21 19 16 17 18 16 15 14 14 13 10 9 12 14 15 19 20 17 13 12 10 15 17 17 19 18 16
23 25 29 29 32 32 32 32 32 31 32 30 25 21 21 21 19 15 16 17 16 15 15 14 12 10 10 10 8 15 19 27 19 15 12 14 14 15 19 22 23 15 4
26 27 29 30 29 33 33 30 28 29 27 25 21 20 19 20 20 17 15 15 15 13 12 13 11 9 10 11 9 13 15 25 26 28 22 20 19 22 25 24 18 17 9
27 27 29 30 29 32 33 31 27 25 25 25 24 23 22 18 16 14 14 14 13 12 10 10 9 10 10 11 11 14 18 20 21 21 22 25 23 25 26 24 22 18 19
24 28 29 31 32 32 30 27 25 26 27 27 24 22 19 17 14 14 13 14 14 12 9 9 9 7 10 12 13 21 20 16 13 11 16 20 19 24 26 28 24 23 10
27 29 31 34 35 31 28 27 28 30 28 26 22 17 15 14 14 13 13 16 15 12 11 10 8 7 11 15 21 26 24 19 17 18 19 17 18 21 24 24 30 20 14
31 31 31 34 33 30 28 30 30 29 27 24 20 15 13 13 13 12 13 15 16 14 12 10 9 10 13 21 25 25 24 23 20 22 22 22 22 23 24 22 28 29 21
32 29 29 33 28 31 31 29 28 29 27 25 21 16 14 13 10 9 12 14 14 13 13 10 8 13 14 24 25 21 24 24 23 23 22 23 24 25 23 20 22 23 20
29 26 27 29 29 32 31 28 26 28 25 18 16 15 14 11 10 9 12 12 11 10 12 9 10 13 19 23 22 25 25 22 22 18 16 16 21 23 19 19 18 18 17
27 27 27 27 28 29 28 29 26 23 21 19 16 15 16 14 12 11 13 14 10 12 14 13 14 21 20 25 26 24 22 21 22 19 17 19 18 19 19 20 19 20 16
28 25 22 25 28 25 22 20 24 26 28 26 23 21 20 15 16 14 14 16 16 18 20 18 17 21 25 24 22 20 19 21 22 21 20 18 19 19 18 17 17 20 12
24 23 23 25 27 26 23 17 19 20 22 23 23 23 20 16 16 13 10 10 15 23 21 18 18 18 18 19 20 19 19 20 20 21 20 21 21 19 18 16 16 20 17
28 25 25 26 24 21 17 20 15 11 17 21 21 22 19 19 19 12 10 13 20 22 16 18 17 19 19 20 20 20 20 18 18 19 20 19 19 18 18 17 15 16 15
32 34 28 24 23 22 21 21 21 17 16 15 24 22 19 19 19 16 17 19 15 13 17 18 19 20 20 21 19 18 16 16 16 16 16 17 18 17 18 18 19 17 13
27 26 23 23 23 23 22 22 19 20 17 20 20 20 21 21 19 18 21 18 13 14 15 17 20 21 22 18 20 17 16 17 16 16 16 15 17 18 16 17 19 17 17
26 29 26 22 25 21 23 22 19 18 19 18 19 25 24 23 23 23 17 15 12 13 15 17 19 20 22 20 18 16 17 17 16 17 17 17 16 16 18 21 20 23 27
29 29 25 25 22 21 21 20 20 19 17 17 19 25 26 20 20 22 17 13 9 13 12 15 17 18 21 21 18 15 15 15 17 18 17 17 17 19 20 18 21 21 21
27 25 27 24 23 22 24 23 21 20 18 17 17 22 20 19 22 18 16 10 5 6 10 11 14 14 15 16 20 20 17 16 17 18 18 17 17 19 19 20 21 21 22
30 26 21 20 21 24 24 23 21 19 19 19 17 19 15 14 13 8 8 8 5 9 11 12 12 12 13 14 14 14 17 20 14 15 19 19 19 20 20 22 22 24 25
25 24 27 24 27 22 21 21 23 24 23 23 20 20 15 13 16 16 17 16 16 15 16 16 13 10 10 8 11 12 15 16 15 14 16 15 15 16 17 17 16 13 13
23 21 24 24 26 24 27 28 26 26 25 23 23 21 19 22 23 24 22 22 22 21 19 18 17 14 12 11 9 6 5 6 7 8 7 9 8 7 5 12 15 13 10
25 24 25 26 26 28 28 26 24 25 25 25 26 24 23 23 24 26 26 27 27 26 26 25 24 23 22 20 16 11 10 8 9 11 13 15 15 15 13 13 12 14 14
Wind_Direction
210 216 217 216 209 204 198 199 202 198 191 187 190 188 180 178 179 178 183 192 195 196 199 204 208 210 211 218 225 218 211 191 136 124 142 167 189 176 190 198 189 190 189
210 211 207 206 195 193 198 200 196 187 187 186 184 182 181 177 177 183 187 191 193 197 206 203 208 204 211 221 222 221 216 202 159 143 133 143 167 179 189 183 175 185 190
194 187 184 184 189 196 194 191 184 178 178 180 177 177 175 177 182 191 187 189 203 206 204 208 210 204 209 215 217 215 205 197 183 150 137 134 131 158 159 150 148 153 160
177 176 177 184 190 188 180 178 175 176 172 170 169 170 177 184 188 186 189 197 203 205 211 215 209 212 215 215 218 205 187 168 163 149 133 136 146 153 154 146 140 159 162
158 159 161 166 166 167 168 168 170 171 167 166 171 178 183 184 188 190 185 190 192 196 207 212 210 207 209 217 215 192 181 179 152 152 141 139 147 149 147 154 137 151 151
148 142 144 142 136 137 137 144 147 160 166 171 177 175 177 188 189 194 195 190 191 200 201 200 198 209 223 220 208 201 210 187 160 157 156 166 165 164 160 153 148 139 120
140 141 142 140 139 145 145 150 151 152 160 164 164 173 171 170 182 192 191 193 195 196 197 196 203 217 216 208 194 194 198 206 204 186 173 178 169 177 167 157 153 154 133
143 144 145 138 142 147 152 152 150 152 155 157 158 161 158 163 167 178 188 190 191 190 192 199 209 199 205 197 192 196 192 193 198 198 196 182 183 187 181 167 160 153 142
146 141 138 138 143 149 150 152 157 160 162 160 160 158 157 159 170 177 179 180 181 181 186 186 187 199 193 186 180 164 160 162 178 193 190 184 185 184 178 169 157 145 135
141 138 142 148 151 153 151 155 155 154 157 157 155 157 162 165 168 168 177 176 170 171 171 177 182 192 171 175 169 159 149 157 162 161 162 166 178 182 184 182 174 157 139
141 142 153 157 157 157 155 158 153 151 151 151 149 150 154 157 158 175 182 183 179 166 177 184 185 181 179 181 176 167 161 158 160 160 159 160 167 172 182 190 184 190 167
142 152 154 160 161 158 152 151 154 153 149 145 139 140 146 152 156 163 177 187 184 176 183 178 190 182 178 179 176 168 159 156 160 156 154 158 164 176 184 187 192 194 187
144 146 151 154 155 156 153 153 148 150 145 143 141 144 151 157 166 171 179 177 178 188 179 166 165 170 173 175 170 161 157 156 155 149 149 156 168 178 180 182 188 190 189
136 139 146 146 148 154 155 158 152 152 149 149 149 149 160 166 169 160 158 164 171 169 161 154 151 149 159 158 151 154 160 162 162 156 156 170 171 171 176 178 178 183 181
137 136 137 142 148 146 146 153 162 169 171 166 169 169 165 175 183 175 171 169 175 171 157 149 146 145 141 144 152 162 163 164 170 172 173 173 176 177 180 184 187 185 189
134 138 143 145 149 148 145 141 168 176 181 186 184 182 186 183 172 171 174 184 177 166 155 147 143 143 144 145 156 162 168 172 180 178 177 181 183 187 185 186 191 191 199
144 146 149 151 153 150 149 144 129 128 186 190 189 193 187 171 166 162 159 155 161 168 156 151 148 154 157 161 171 173 176 184 184 185 181 181 190 195 197 193 189 189 201
152 155 154 157 157 154 154 153 149 146 136 139 178 189 182 172 164 157 151 149 151 170 167 161 161 167 169 176 179 177 179 179 184 186 189 190 190 197 195 204 202 201 209
152 152 157 155 155 152 152 144 138 126 117 129 140 151 152 156 158 157 155 155 157 169 179 175 177 175 177 180 184 187 182 183 186 188 194 201 209 210 207 209 215 217 227
154 160 155 147 147 145 147 138 131 123 128 131 135 144 149 150 152 163 168 167 175 180 182 185 185 186 186 188 184 186 186 189 191 198 202 209 218 219 219 219 221 226 235
160 164 156 154 153 152 147 147 146 141 144 144 151 159 159 153 165 174 175 179 174 191 181 184 187 188 191 194 192 191 199 202 205 208 213 220 223 224 228 231 230 233 240
162 166 168 164 157 150 150 154 151 149 146 147 153 164 163 167 171 177 184 188 171 148 195 178 176 182 190 198 204 210 212 215 217 220 226 228 231 231 235 236 240 245 249
172 174 172 162 155 151 147 148 145 146 148 148 146 157 161 168 158 151 162 178 177 149 147 162 166 175 189 197 206 216 219 222 230 231 234 238 240 239 238 239 242 249 255
160 161 157 152 154 147 145 138 139 144 144 142 148 154 144 148 149 146 143 144 137 126 130 142 152 161 168 178 197 207 219 227 231 236 244 246 246 249 253 258 261 265 270
146 143 159 158 148 129 131 136 137 140 139 135 138 143 140 139 136 133 132 132 126 122 120 119 120 119 123 130 131 149 168 185 201 215 227 218 226 219 146 118 115 103 85
118 122 122 129 120 127 131 134 136 135 132 133 134 134 133 130 129 130 129 128 124 116 112 108 106 105 103 100 100 110 117 125 129 126 127 122 119 109 107 100 89 82 73
Height
630 636 641 646 651 656 661 666 672 677 684 690 695 700 704 708 713 717 721 725 728 731 734 736 738 740 741 742 743 745 746 747 750 753 753 755 756 758 760 763 766 769 773
623 629 636 643 649 654 658 663 669 674 682 688 693 699 703 707 711 716 720 723 726 729 732 735 736 738 739 740 741 742 743 745 747 751 754 756 757 759 763 765 768 771 774
622 628 635 640 646 650 655 661 666 673 680 686 692 697 701 706 711 715 718 721 724 727 730 732 734 736 738 738 739 740 741 743 746 748 753 756 759 762 764 768 770 773 776
620 626 633 638 643 647 653 659 665 672 678 685 691 696 701 706 710 714 716 720 722 726 729 731 733 734 736 737 738 739 740 742 746 750 753 757 761 764 764 767 773 776 779
618 624 633 638 644 647 651 658 664 673 678 684 691 696 700 704 708 711 714 718 721 724 727 729 731 732 734 735 736 737 738 743 746 750 753 758 761 763 765 769 774 778 782
619 626 631 639 644 649 654 661 665 674 680 685 691 694 699 702 706 710 713 716 720 722 724 726 729 731 732 733 734 736 738 740 744 749 753 756 760 763 765 769 773 779 785
621 627 632 638 646 651 656 663 670 675 681 685 689 693 697 702 706 709 712 715 718 720 723 725 727 728 730 731 732 734 736 740 740 742 749 754 758 761 764 770 774 777 782
622 628 635 637 646 652 659 664 670 676 680 684 689 694 697 702 706 709 711 714 717 720 722 723 725 727 728 730 731 733 736 741 743 745 748 751 756 762 765 769 774 780 785
622 627 632 638 647 654 659 664 670 675 680 685 690 695 698 702 705 708 710 713 716 719 721 723 724 725 727 728 730 733 737 741 745 747 750 754 758 762 766 770 776 782 787
621 627 634 642 648 654 659 665 670 675 681 687 692 696 699 701 704 707 710 712 716 718 720 722 724 725 726 728 730 732 736 740 744 747 751 755 759 763 768 771 773 780 784
619 628 639 643 649 655 660 665 671 676 681 687 692 697 699 702 704 707 710 712 714 717 719 721 723 724 726 729 731 733 736 740 745 748 751 755 759 764 768 771 774 777 782
621 633 640 645 650 654 660 666 672 676 681 687 692 697 700 703 705 707 710 712 714 716 718 720 721 724 726 729 733 736 739 742 746 749 753 756 760 763 767 771 775 779 783
626 634 640 646 650 655 661 667 672 676 681 687 692 697 700 703 706 708 709 712 714 716 719 721 722 724 727 731 735 738 742 745 749 752 755 758 761 764 768 771 776 780 784
625 634 642 647 652 657 662 667 671 677 681 686 691 695 700 703 705 707 709 711 714 717 720 722 723 726 729 732 738 742 744 747 751 754 757 760 763 766 769 771 775 779 783
627 636 644 650 654 658 663 668 671 675 678 683 688 692 697 702 704 706 708 711 713 717 720 723 725 728 732 736 739 742 745 748 751 754 758 761 764 766 769 772 775 778 781
631 640 646 651 656 659 662 668 672 675 679 683 688 692 696 700 704 707 709 711 714 717 721 724 727 731 733 736 739 743 746 749 752 755 758 761 764 766 769 772 774 776 779
631 640 646 651 655 659 662 665 670 676 679 684 689 694 697 700 704 707 710 713 716 719 721 725 728 731 735 738 740 743 746 749 752 755 758 761 764 767 770 772 775 777 779
629 636 643 649 653 657 662 665 668 672 677 683 688 694 699 702 706 709 712 716 719 721 722 725 729 732 736 738 741 744 747 750 753 755 759 761 765 767 770 772 774 776 778
632 637 643 648 653 658 664 667 670 673 678 684 690 696 700 704 709 712 715 717 719 721 724 726 729 732 735 739 742 745 748 751 753 756 759 761 763 766 768 771 774 776 778
631 636 641 648 655 661 664 668 672 676 682 687 692 696 701 706 710 713 716 718 720 721 723 726 729 732 735 739 742 745 748 751 753 755 757 759 761 763 765 768 770 772 774
632 637 642 649 655 660 664 668 673 679 684 689 693 697 701 705 709 713 716 719 721 722 724 726 729 732 735 738 742 745 748 750 752 754 755 757 759 761 763 765 767 768 770
632 638 642 648 654 659 663 669 674 680 685 690 695 700 704 707 711 715 718 720 722 724 726 728 730 733 736 739 742 744 746 748 750 752 754 755 757 759 760 762 764 765 766
631 636 642 648 654 659 664 671 676 681 686 692 697 702 707 711 715 718 720 721 722 723 726 729 731 734 736 738 741 743 744 746 747 749 751 752 753 754 756 758 759 761 761
631 634 640 647 653 660 667 673 678 684 689 693 698 704 709 711 714 716 719 721 723 725 727 729 731 733 736 738 739 741 743 745 746 747 748 749 751 752 753 754 755 757 758
633 635 640 646 654 662 668 674 680 685 690 696 701 706 709 711 713 717 720 722 724 727 729 731 732 734 736 738 739 741 742 744 744 745 745 746 747 749 751 752 754 756 757
637 640 644 650 656 662 669 675 681 686 691 697 702 706 710 714 716 719 723 725 727 730 732 735 737 738 740 740 741 742 743 745 746 746 747 747 748 750 752 754 755 756 759